Time,TemperatureF,DewpointF,PressureIn,WindDirection,WindDirectionDegrees,WindSpeedMPH,WindSpeedGustMPH,Humidity,HourlyPrecipIn,Conditions,Clouds,dailyrainin,SoftwareType,DateUTC
2013-02-21 00:00:00,18.5,4.9,30.26,West,270,0.0,2.2,55,0.00,,,0.00,WUHU216HW,2013-02-21 05:00:00,
2013-02-21 00:05:00,18.5,4.9,30.26,SW,225,0.0,1.1,55,0.00,,,0.00,WUHU216HW,2013-02-21 05:05:00,
2013-02-21 00:10:00,18.5,4.9,30.26,West,270,0.0,0.0,55,0.00,,,0.00,WUHU216HW,2013-02-21 05:10:00,
2013-02-21 00:15:00,18.5,4.9,30.26,SW,225,0.0,4.0,55,0.00,,,0.00,WUHU216HW,2013-02-21 05:15:00,
2013-02-21 00:20:00,18.5,4.9,30.26,West,270,0.0,4.0,55,0.00,,,0.00,WUHU216HW,2013-02-21 05:20:00,
2013-02-21 00:25:00,18.5,5.3,30.25,WSW,248,0.0,0.0,56,0.00,,,0.00,WUHU216HW,2013-02-21 05:25:00,
2013-02-21 00:30:00,18.5,5.3,30.25,East,90,0.0,0.0,56,0.00,,,0.00,WUHU216HW,2013-02-21 05:30:00,
2013-02-21 00:35:00,18.5,5.3,30.25,WSW,248,0.0,0.0,56,0.00,,,0.00,WUHU216HW,2013-02-21 05:35:00,
2013-02-21 00:40:00,18.5,5.3,30.25,WNW,293,3.8,3.8,56,0.00,,,0.00,WUHU216HW,2013-02-21 05:40:00,
2013-02-21 00:45:00,18.5,5.3,30.25,SW,225,0.0,3.8,56,0.00,,,0.00,WUHU216HW,2013-02-21 05:45:00,
2013-02-21 00:50:00,18.5,5.3,30.25,West,270,0.0,0.0,56,0.00,,,0.00,WUHU216HW,2013-02-21 05:50:00,
2013-02-21 00:55:00,18.5,5.3,30.25,SW,225,0.0,0.0,56,0.00,,,0.00,WUHU216HW,2013-02-21 05:55:00,
2013-02-21 01:00:00,18.5,5.3,30.25,SSW,203,0.0,0.0,56,0.00,,,0.00,WUHU216HW,2013-02-21 06:00:00,
2013-02-21 01:05:00,18.5,5.3,30.25,SW,225,0.0,0.0,56,0.00,,,0.00,WUHU216HW,2013-02-21 06:05:00,
2013-02-21 01:10:00,18.5,5.7,30.25,SW,225,0.0,0.0,57,0.00,,,0.00,WUHU216HW,2013-02-21 06:10:00,
2013-02-21 01:15:00,18.5,5.7,30.25,West,270,0.0,0.0,57,0.00,,,0.00,WUHU216HW,2013-02-21 06:15:00,
2013-02-21 01:20:00,18.5,5.7,30.25,WSW,248,0.0,0.0,57,0.00,,,0.00,WUHU216HW,2013-02-21 06:20:00,
2013-02-21 01:25:00,18.5,5.7,30.25,SW,225,0.0,0.0,57,0.00,,,0.00,WUHU216HW,2013-02-21 06:25:00,
2013-02-21 01:30:00,18.5,5.7,30.26,WSW,248,0.0,0.0,57,0.00,,,0.00,WUHU216HW,2013-02-21 06:30:00,
2013-02-21 01:35:00,18.5,5.7,30.26,SW,225,0.0,0.0,57,0.00,,,0.00,WUHU216HW,2013-02-21 06:35:00,
2013-02-21 01:40:00,18.5,6.0,30.26,West,270,0.0,0.0,58,0.00,,,0.00,WUHU216HW,2013-02-21 06:40:00,
2013-02-21 01:45:00,18.5,6.0,30.26,WNW,293,0.0,0.0,58,0.00,,,0.00,WUHU216HW,2013-02-21 06:45:00,
2013-02-21 01:50:00,18.5,6.0,30.26,West,270,0.0,0.0,58,0.00,,,0.00,WUHU216HW,2013-02-21 06:50:00,
2013-02-21 01:55:00,18.5,6.0,30.26,West,270,0.0,0.0,58,0.00,,,0.00,WUHU216HW,2013-02-21 06:55:00,
2013-02-21 02:00:00,18.5,6.4,30.26,SW,225,0.0,0.0,59,0.00,,,0.00,WUHU216HW,2013-02-21 07:00:00,
2013-02-21 02:05:00,18.5,6.4,30.26,WSW,248,0.0,1.3,59,0.00,,,0.00,WUHU216HW,2013-02-21 07:05:00,
2013-02-21 02:10:00,18.5,6.4,30.26,WSW,248,0.0,1.3,59,0.00,,,0.00,WUHU216HW,2013-02-21 07:10:00,
2013-02-21 02:15:00,18.5,6.4,30.26,SW,225,0.0,0.6,59,0.00,,,0.00,WUHU216HW,2013-02-21 07:15:00,
2013-02-21 02:20:00,18.5,6.4,30.26,West,270,0.0,0.0,59,0.00,,,0.00,WUHU216HW,2013-02-21 07:20:00,
2013-02-21 02:25:00,18.5,6.8,30.26,WSW,248,0.0,0.0,60,0.00,,,0.00,WUHU216HW,2013-02-21 07:25:00,
2013-02-21 02:30:00,18.5,6.8,30.26,NW,315,0.0,1.5,60,0.00,,,0.00,WUHU216HW,2013-02-21 07:30:00,
2013-02-21 02:35:00,18.5,6.8,30.26,WSW,248,0.0,1.5,60,0.00,,,0.00,WUHU216HW,2013-02-21 07:35:00,
2013-02-21 02:40:00,18.5,6.8,30.26,West,270,0.0,0.0,60,0.00,,,0.00,WUHU216HW,2013-02-21 07:40:00,
2013-02-21 02:45:00,18.5,7.0,30.26,West,270,0.0,0.0,60,0.00,,,0.00,WUHU216HW,2013-02-21 07:45:00,
2013-02-21 02:50:00,18.5,6.8,30.26,North,0,0.0,0.0,60,0.00,,,0.00,WUHU216HW,2013-02-21 07:50:00,
2013-02-21 02:55:00,18.6,7.0,30.27,West,270,0.0,2.9,60,0.00,,,0.00,WUHU216HW,2013-02-21 07:55:00,
2013-02-21 03:00:00,18.6,7.3,30.27,West,270,0.0,2.9,61,0.00,,,0.00,WUHU216HW,2013-02-21 08:00:00,
2013-02-21 03:05:00,18.6,7.3,30.26,WNW,293,0.0,0.0,61,0.00,,,0.00,WUHU216HW,2013-02-21 08:05:00,
2013-02-21 03:10:00,18.6,7.3,30.26,West,270,0.0,0.0,61,0.00,,,0.00,WUHU216HW,2013-02-21 08:10:00,
2013-02-21 03:15:00,18.8,7.5,30.26,SW,225,0.0,0.0,61,0.00,,,0.00,WUHU216HW,2013-02-21 08:15:00,
2013-02-21 03:20:00,18.8,7.5,30.26,West,270,0.0,1.7,61,0.00,,,0.00,WUHU216HW,2013-02-21 08:20:00,
2013-02-21 03:25:00,18.8,7.5,30.26,WNW,293,2.0,2.0,61,0.00,,,0.00,WUHU216HW,2013-02-21 08:25:00,
2013-02-21 03:30:00,18.8,7.5,30.26,West,270,0.0,2.0,61,0.00,,,0.00,WUHU216HW,2013-02-21 08:30:00,
2013-02-21 03:35:00,18.8,7.5,30.26,WNW,293,0.0,0.6,61,0.00,,,0.00,WUHU216HW,2013-02-21 08:35:00,
2013-02-21 03:40:00,18.8,7.8,30.26,WSW,248,0.0,3.1,62,0.00,,,0.00,WUHU216HW,2013-02-21 08:40:00,
2013-02-21 03:45:00,19.0,7.8,30.26,NNW,338,0.0,3.1,62,0.00,,,0.00,WUHU216HW,2013-02-21 08:45:00,
2013-02-21 03:50:00,19.0,8.0,30.26,West,270,0.0,0.0,62,0.00,,,0.00,WUHU216HW,2013-02-21 08:50:00,
2013-02-21 03:55:00,19.0,8.0,30.27,WNW,293,0.0,0.0,62,0.00,,,0.00,WUHU216HW,2013-02-21 08:55:00,
2013-02-21 04:00:00,19.0,8.0,30.27,WNW,293,0.0,0.0,62,0.00,,,0.00,WUHU216HW,2013-02-21 09:00:00,
2013-02-21 04:05:00,19.2,8.2,30.27,WNW,293,0.0,0.0,62,0.00,,,0.00,WUHU216HW,2013-02-21 09:05:00,
2013-02-21 04:10:00,19.4,8.3,30.27,WNW,293,0.0,0.0,62,0.00,,,0.00,WUHU216HW,2013-02-21 09:10:00,
2013-02-21 04:15:00,19.2,8.2,30.27,NW,315,0.0,0.0,62,0.00,,,0.00,WUHU216HW,2013-02-21 09:15:00,
2013-02-21 04:20:00,19.2,7.8,30.27,WNW,293,0.0,0.0,61,0.00,,,0.00,WUHU216HW,2013-02-21 09:20:00,
2013-02-21 04:25:00,19.2,7.8,30.27,West,270,0.0,0.0,61,0.00,,,0.00,WUHU216HW,2013-02-21 09:25:00,
2013-02-21 04:30:00,19.2,7.8,30.27,WNW,293,0.0,0.0,61,0.00,,,0.00,WUHU216HW,2013-02-21 09:30:00,
2013-02-21 04:35:00,19.2,7.8,30.27,WNW,293,0.0,0.8,61,0.00,,,0.00,WUHU216HW,2013-02-21 09:35:00,
2013-02-21 04:40:00,19.0,7.7,30.27,NW,315,0.0,0.8,61,0.00,,,0.00,WUHU216HW,2013-02-21 09:40:00,
2013-02-21 04:45:00,19.2,7.5,30.27,NNW,338,0.0,0.0,60,0.00,,,0.00,WUHU216HW,2013-02-21 09:45:00,
2013-02-21 04:50:00,19.2,7.3,30.27,NW,315,0.0,2.4,60,0.00,,,0.00,WUHU216HW,2013-02-21 09:50:00,
2013-02-21 04:55:00,19.0,7.3,30.28,North,0,0.0,2.4,60,0.00,,,0.00,WUHU216HW,2013-02-21 09:55:00,
2013-02-21 05:00:00,19.0,7.3,30.28,North,0,0.0,0.0,60,0.00,,,0.00,WUHU216HW,2013-02-21 10:00:00,
2013-02-21 05:05:00,19.0,6.9,30.28,NNW,338,0.0,0.0,59,0.00,,,0.00,WUHU216HW,2013-02-21 10:05:00,
2013-02-21 05:10:00,19.0,6.9,30.28,WSW,248,0.0,0.0,59,0.00,,,0.00,WUHU216HW,2013-02-21 10:10:00,
2013-02-21 05:15:00,19.0,6.9,30.29,WNW,293,0.0,0.0,59,0.00,,,0.00,WUHU216HW,2013-02-21 10:15:00,
2013-02-21 05:20:00,19.0,6.9,30.29,NNW,338,0.0,0.0,59,0.00,,,0.00,WUHU216HW,2013-02-21 10:20:00,
2013-02-21 05:25:00,19.0,6.9,30.29,WNW,293,0.0,0.0,59,0.00,,,0.00,WUHU216HW,2013-02-21 10:25:00,
2013-02-21 05:30:00,18.8,6.4,30.29,WNW,293,0.0,0.0,58,0.00,,,0.00,WUHU216HW,2013-02-21 10:30:00,
2013-02-21 05:35:00,18.8,6.4,30.30,WNW,293,0.0,0.0,58,0.00,,,0.00,WUHU216HW,2013-02-21 10:35:00,
2013-02-21 05:40:00,18.8,6.0,30.30,NW,315,0.0,0.0,57,0.00,,,0.00,WUHU216HW,2013-02-21 10:40:00,
2013-02-21 05:45:00,18.8,6.0,30.30,WNW,293,0.0,0.0,57,0.00,,,0.00,WUHU216HW,2013-02-21 10:45:00,
2013-02-21 05:50:00,18.8,6.0,30.30,WNW,293,0.0,0.0,57,0.00,,,0.00,WUHU216HW,2013-02-21 10:50:00,
2013-02-21 05:55:00,18.8,5.6,30.30,West,270,0.0,0.0,56,0.00,,,0.00,WUHU216HW,2013-02-21 10:55:00,
2013-02-21 06:00:00,18.6,5.4,30.30,WNW,293,0.0,0.0,56,0.00,,,0.00,WUHU216HW,2013-02-21 11:00:00,
2013-02-21 06:05:00,18.6,5.4,30.30,West,270,0.0,0.0,56,0.00,,,0.00,WUHU216HW,2013-02-21 11:05:00,
2013-02-21 06:10:00,18.6,5.3,30.30,West,270,0.0,0.0,55,0.00,,,0.00,WUHU216HW,2013-02-21 11:10:00,
2013-02-21 06:15:00,18.6,5.0,30.30,WNW,293,0.0,0.0,55,0.00,,,0.00,WUHU216HW,2013-02-21 11:15:00,
2013-02-21 06:20:00,18.6,5.0,30.30,NW,315,0.0,0.0,55,0.00,,,0.00,WUHU216HW,2013-02-21 11:20:00,
2013-02-21 06:25:00,18.6,5.0,30.30,West,270,0.0,0.0,55,0.00,,,0.00,WUHU216HW,2013-02-21 11:25:00,
2013-02-21 06:31:00,18.6,5.0,30.30,WNW,293,0.0,0.0,55,0.00,,,0.00,WUHU216HW,2013-02-21 11:31:00,
2013-02-21 06:35:00,18.8,5.2,30.30,NNW,338,0.0,0.0,55,0.00,,,0.00,WUHU216HW,2013-02-21 11:35:00,
2013-02-21 06:40:00,18.8,5.2,30.30,NNW,338,0.0,0.0,55,0.00,,,0.00,WUHU216HW,2013-02-21 11:40:00,
2013-02-21 06:45:00,18.8,5.2,30.30,WSW,248,0.0,0.0,55,0.00,,,0.00,WUHU216HW,2013-02-21 11:45:00,
2013-02-21 06:50:00,18.6,5.0,30.30,West,270,0.0,0.0,55,0.00,,,0.00,WUHU216HW,2013-02-21 11:50:00,
2013-02-21 06:55:00,18.8,5.2,30.31,West,270,0.0,0.0,55,0.00,,,0.00,WUHU216HW,2013-02-21 11:55:00,
2013-02-21 07:01:00,18.8,5.2,30.32,WNW,293,2.4,2.4,55,0.00,,,0.00,WUHU216HW,2013-02-21 12:01:00,
2013-02-21 07:06:00,18.8,5.2,30.31,NW,315,0.0,2.4,55,0.00,,,0.00,WUHU216HW,2013-02-21 12:06:00,
2013-02-21 07:11:00,18.8,5.2,30.31,NW,315,0.0,0.0,55,0.00,,,0.00,WUHU216HW,2013-02-21 12:11:00,
2013-02-21 07:16:00,18.8,5.2,30.32,WNW,293,0.0,0.0,55,0.00,,,0.00,WUHU216HW,2013-02-21 12:16:00,
2013-02-21 07:21:00,19.0,5.3,30.32,West,270,0.0,0.0,55,0.00,,,0.00,WUHU216HW,2013-02-21 12:21:00,
2013-02-21 07:26:00,19.0,5.3,30.31,NW,315,0.0,2.4,55,0.00,,,0.00,WUHU216HW,2013-02-21 12:26:00,
2013-02-21 07:31:00,19.0,5.3,30.31,West,270,0.0,2.4,55,0.00,,,0.00,WUHU216HW,2013-02-21 12:31:00,
2013-02-21 07:36:00,19.2,5.5,30.30,NW,315,0.0,0.0,55,0.00,,,0.00,WUHU216HW,2013-02-21 12:36:00,
2013-02-21 07:41:00,19.5,5.8,30.31,WSW,248,0.0,0.0,55,0.00,,,0.00,WUHU216HW,2013-02-21 12:41:00,
2013-02-21 07:46:00,19.5,5.8,30.30,West,270,0.0,0.0,55,0.00,,,0.00,WUHU216HW,2013-02-21 12:46:00,
2013-02-21 07:51:00,19.7,6.0,30.30,West,270,0.0,0.0,55,0.00,,,0.00,WUHU216HW,2013-02-21 12:51:00,
2013-02-21 07:56:00,19.7,6.0,30.30,WNW,293,0.0,0.0,55,0.00,,,0.00,WUHU216HW,2013-02-21 12:56:00,
2013-02-21 08:01:00,20.1,6.4,30.30,North,0,0.0,0.0,55,0.00,,,0.00,WUHU216HW,2013-02-21 13:01:00,
2013-02-21 08:06:00,20.3,6.5,30.30,West,270,0.0,0.0,55,0.00,,,0.00,WUHU216HW,2013-02-21 13:06:00,
2013-02-21 08:11:00,20.4,6.9,30.30,West,270,0.0,0.0,55,0.00,,,0.00,WUHU216HW,2013-02-21 13:11:00,
2013-02-21 08:16:00,20.6,6.9,30.31,NE,45,0.0,0.0,55,0.00,,,0.00,WUHU216HW,2013-02-21 13:16:00,
2013-02-21 08:21:00,20.8,7.0,30.31,North,0,0.0,0.0,55,0.00,,,0.00,WUHU216HW,2013-02-21 13:21:00,
2013-02-21 08:26:00,21.0,7.2,30.32,NW,315,0.0,0.0,55,0.00,,,0.00,WUHU216HW,2013-02-21 13:26:00,
2013-02-21 08:31:00,21.2,7.0,30.33,WNW,293,0.0,0.0,54,0.00,,,0.00,WUHU216HW,2013-02-21 13:31:00,
2013-02-21 08:36:00,21.3,7.1,30.33,WNW,293,0.0,0.0,54,0.00,,,0.00,WUHU216HW,2013-02-21 13:36:00,
2013-02-21 08:41:00,21.3,7.1,30.32,West,270,0.0,0.0,54,0.00,,,0.00,WUHU216HW,2013-02-21 13:41:00,
2013-02-21 08:46:00,21.3,6.7,30.32,West,270,0.0,0.0,53,0.00,,,0.00,WUHU216HW,2013-02-21 13:46:00,
2013-02-21 08:51:00,21.3,6.7,30.32,SW,225,0.0,0.0,53,0.00,,,0.00,WUHU216HW,2013-02-21 13:51:00,
2013-02-21 08:56:00,21.5,6.9,30.32,NNW,338,0.0,0.0,53,0.00,,,0.00,WUHU216HW,2013-02-21 13:56:00,
2013-02-21 09:01:00,21.7,7.1,30.31,NW,315,0.0,0.0,53,0.00,,,0.00,WUHU216HW,2013-02-21 14:01:00,
2013-02-21 09:06:00,22.1,7.4,30.32,NNW,338,0.0,0.0,53,0.00,,,0.00,WUHU216HW,2013-02-21 14:06:00,
2013-02-21 09:11:00,22.1,7.5,30.31,SW,225,0.0,0.0,53,0.00,,,0.00,WUHU216HW,2013-02-21 14:11:00,
2013-02-21 09:16:00,22.1,7.4,30.31,WNW,293,0.0,0.0,53,0.00,,,0.00,WUHU216HW,2013-02-21 14:16:00,
2013-02-21 09:21:00,22.1,7.4,30.31,West,270,0.0,0.0,53,0.00,,,0.00,WUHU216HW,2013-02-21 14:21:00,
2013-02-21 09:26:00,22.2,7.6,30.31,West,270,0.0,0.0,53,0.00,,,0.00,WUHU216HW,2013-02-21 14:26:00,
2013-02-21 09:31:00,22.2,7.6,30.32,NW,315,0.0,0.0,53,0.00,,,0.00,WUHU216HW,2013-02-21 14:31:00,
2013-02-21 09:36:00,22.1,7.0,30.31,West,270,0.0,0.0,52,0.00,,,0.00,WUHU216HW,2013-02-21 14:36:00,
2013-02-21 09:41:00,22.2,7.2,30.31,WNW,293,0.0,0.0,52,0.00,,,0.00,WUHU216HW,2013-02-21 14:41:00,
2013-02-21 09:46:00,22.1,7.0,30.32,WNW,293,0.0,0.0,52,0.00,,,0.00,WUHU216HW,2013-02-21 14:46:00,
2013-02-21 09:51:00,22.2,7.2,30.33,WNW,293,0.0,0.0,52,0.00,,,0.00,WUHU216HW,2013-02-21 14:51:00,
2013-02-21 09:56:00,22.4,7.8,30.33,West,270,0.0,0.0,53,0.00,,,0.00,WUHU216HW,2013-02-21 14:56:00,
2013-02-21 10:01:00,22.6,7.9,30.33,NNW,338,0.0,0.0,53,0.00,,,0.00,WUHU216HW,2013-02-21 15:01:00,
2013-02-21 10:06:00,22.8,7.9,30.33,West,270,0.0,0.0,53,0.00,,,0.00,WUHU216HW,2013-02-21 15:06:00,
2013-02-21 10:11:00,22.6,7.7,30.33,WNW,293,0.0,0.0,52,0.00,,,0.00,WUHU216HW,2013-02-21 15:11:00,
2013-02-21 10:16:00,22.6,7.5,30.33,WSW,248,0.0,0.0,52,0.00,,,0.00,WUHU216HW,2013-02-21 15:16:00,
2013-02-21 10:21:00,22.8,7.7,30.32,West,270,0.0,0.0,52,0.00,,,0.00,WUHU216HW,2013-02-21 15:21:00,
2013-02-21 10:26:00,23.1,8.1,30.33,WNW,293,0.0,0.0,52,0.00,,,0.00,WUHU216HW,2013-02-21 15:26:00,
2013-02-21 10:31:00,23.1,8.1,30.33,WNW,293,0.0,0.0,52,0.00,,,0.00,WUHU216HW,2013-02-21 15:31:00,
2013-02-21 10:36:00,22.8,7.7,30.34,WNW,293,0.0,0.0,52,0.00,,,0.00,WUHU216HW,2013-02-21 15:36:00,
2013-02-21 10:41:00,23.1,7.7,30.33,SSW,203,0.0,0.0,51,0.00,,,0.00,WUHU216HW,2013-02-21 15:41:00,
2013-02-21 10:46:00,22.8,7.3,30.33,WSW,248,0.0,0.0,51,0.00,,,0.00,WUHU216HW,2013-02-21 15:46:00,
2013-02-21 10:51:00,22.8,7.3,30.33,WSW,248,0.0,0.0,51,0.00,,,0.00,WUHU216HW,2013-02-21 15:51:00,
2013-02-21 10:56:00,23.0,7.5,30.33,WNW,293,0.0,0.0,51,0.00,,,0.00,WUHU216HW,2013-02-21 15:56:00,
2013-02-21 11:01:00,23.1,7.3,30.33,West,270,0.0,0.0,51,0.00,,,0.00,WUHU216HW,2013-02-21 16:01:00,
2013-02-21 11:06:00,23.1,7.7,30.34,West,270,0.0,0.0,51,0.00,,,0.00,WUHU216HW,2013-02-21 16:06:00,
2013-02-21 11:11:00,23.1,8.1,30.33,SSW,203,0.0,0.0,52,0.00,,,0.00,WUHU216HW,2013-02-21 16:11:00,
2013-02-21 11:16:00,23.3,8.4,30.33,WSW,248,0.0,0.0,52,0.00,,,0.00,WUHU216HW,2013-02-21 16:16:00,
2013-02-21 11:21:00,23.5,8.0,30.32,WNW,293,0.0,0.0,51,0.00,,,0.00,WUHU216HW,2013-02-21 16:21:00,
2013-02-21 11:26:00,23.7,8.2,30.32,WNW,293,0.0,0.0,51,0.00,,,0.00,WUHU216HW,2013-02-21 16:26:00,
2013-02-21 11:31:00,24.0,8.5,30.33,North,0,0.0,0.0,51,0.00,,,0.00,WUHU216HW,2013-02-21 16:31:00,
2013-02-21 11:36:00,24.2,8.6,30.33,ENE,68,0.0,0.0,51,0.00,,,0.00,WUHU216HW,2013-02-21 16:36:00,
2013-02-21 11:41:00,24.6,9.0,30.33,WNW,293,0.0,0.0,51,0.00,,,0.00,WUHU216HW,2013-02-21 16:41:00,
2013-02-21 11:46:00,24.6,9.0,30.33,South,180,0.0,0.0,51,0.00,,,0.00,WUHU216HW,2013-02-21 16:46:00,
2013-02-21 11:51:00,24.4,8.4,30.33,West,270,0.0,0.0,50,0.00,,,0.00,WUHU216HW,2013-02-21 16:51:00,
2013-02-21 11:56:00,24.2,8.2,30.33,SSW,203,0.0,0.0,50,0.00,,,0.00,WUHU216HW,2013-02-21 16:56:00,
2013-02-21 12:01:00,24.2,8.2,30.33,West,270,0.0,0.0,50,0.00,,,0.00,WUHU216HW,2013-02-21 17:01:00,
2013-02-21 12:06:00,24.2,8.2,30.32,NNE,23,0.0,0.0,50,0.00,,,0.00,WUHU216HW,2013-02-21 17:06:00,
2013-02-21 12:11:00,24.4,8.4,30.33,SW,225,0.0,0.0,50,0.00,,,0.00,WUHU216HW,2013-02-21 17:11:00,
2013-02-21 12:16:00,24.4,8.4,30.33,West,270,0.0,0.0,50,0.00,,,0.00,WUHU216HW,2013-02-21 17:16:00,
2013-02-21 12:21:00,24.4,8.4,30.32,West,270,0.0,0.0,50,0.00,,,0.00,WUHU216HW,2013-02-21 17:21:00,
2013-02-21 12:26:00,24.6,8.6,30.31,West,270,0.0,0.0,50,0.00,,,0.00,WUHU216HW,2013-02-21 17:26:00,
2013-02-21 12:31:00,24.9,8.9,30.30,ESE,113,0.0,0.0,50,0.00,,,0.00,WUHU216HW,2013-02-21 17:31:00,
2013-02-21 12:36:00,25.1,9.1,30.31,NE,45,0.0,0.0,50,0.00,,,0.00,WUHU216HW,2013-02-21 17:36:00,
2013-02-21 12:41:00,25.5,9.4,30.31,SW,225,0.0,0.0,50,0.00,,,0.00,WUHU216HW,2013-02-21 17:41:00,
2013-02-21 12:46:00,25.7,9.5,30.31,North,0,0.0,0.0,50,0.00,,,0.00,WUHU216HW,2013-02-21 17:46:00,
2013-02-21 12:51:00,25.7,9.5,30.31,SE,135,0.0,0.0,50,0.00,,,0.00,WUHU216HW,2013-02-21 17:51:00,
2013-02-21 12:56:00,26.2,10.0,30.31,ENE,68,0.0,0.0,50,0.00,,,0.00,WUHU216HW,2013-02-21 17:56:00,
2013-02-21 13:01:00,26.2,10.0,30.31,SSE,158,0.0,0.0,50,0.00,,,0.00,WUHU216HW,2013-02-21 18:01:00,
2013-02-21 13:06:00,26.6,10.4,30.30,WNW,293,0.0,0.0,50,0.00,,,0.00,WUHU216HW,2013-02-21 18:06:00,
2013-02-21 13:11:00,26.7,10.5,30.31,NNE,23,0.0,0.0,50,0.00,,,0.00,WUHU216HW,2013-02-21 18:11:00,
2013-02-21 13:16:00,26.9,10.7,30.30,North,0,0.0,0.0,50,0.00,,,0.00,WUHU216HW,2013-02-21 18:16:00,
2013-02-21 13:21:00,27.3,11.1,30.30,WNW,293,0.0,0.0,50,0.00,,,0.00,WUHU216HW,2013-02-21 18:21:00,
2013-02-21 13:26:00,27.5,11.3,30.30,ESE,113,0.0,0.0,50,0.00,,,0.00,WUHU216HW,2013-02-21 18:26:00,
2013-02-21 13:31:00,27.8,11.6,30.29,ENE,68,0.0,0.0,50,0.00,,,0.00,WUHU216HW,2013-02-21 18:31:00,
2013-02-21 13:36:00,28.2,12.0,30.29,WNW,293,0.0,0.0,50,0.00,,,0.00,WUHU216HW,2013-02-21 18:36:00,
2013-02-21 13:41:00,28.5,11.6,30.29,North,0,0.0,0.0,49,0.00,,,0.00,WUHU216HW,2013-02-21 18:41:00,
2013-02-21 13:46:00,29.1,12.3,30.28,NNE,23,0.0,0.0,49,0.00,,,0.00,WUHU216HW,2013-02-21 18:46:00,
2013-02-21 13:51:00,30.3,13.4,30.29,East,90,0.0,0.0,49,0.00,,,0.00,WUHU216HW,2013-02-21 18:51:00,
2013-02-21 13:56:00,31.2,14.1,30.28,SE,135,0.0,0.0,49,0.00,,,0.00,WUHU216HW,2013-02-21 18:56:00,
2013-02-21 14:01:00,32.1,15.0,30.28,South,180,0.0,0.0,49,0.00,,,0.00,WUHU216HW,2013-02-21 19:01:00,
2013-02-21 14:06:00,32.3,14.0,30.28,West,270,0.0,0.0,47,0.00,,,0.00,WUHU216HW,2013-02-21 19:06:00,
2013-02-21 14:11:00,32.7,14.0,30.28,SSW,203,2.4,5.1,46,0.00,,,0.00,WUHU216HW,2013-02-21 19:11:00,
2013-02-21 14:16:00,33.4,14.7,30.27,South,180,0.0,5.1,46,0.00,,,0.00,WUHU216HW,2013-02-21 19:16:00,
2013-02-21 14:21:00,34.1,15.3,30.27,NNE,23,0.0,0.0,46,0.00,,,0.00,WUHU216HW,2013-02-21 19:21:00,
2013-02-21 14:26:00,35.7,16.7,30.25,NNW,338,0.0,0.0,46,0.00,,,0.00,WUHU216HW,2013-02-21 19:26:00,
2013-02-21 14:31:00,36.5,17.0,30.25,NNE,23,0.0,2.2,45,0.00,,,0.00,WUHU216HW,2013-02-21 19:31:00,
2013-02-21 14:36:00,37.2,17.1,30.25,East,90,0.0,2.2,44,0.00,,,0.00,WUHU216HW,2013-02-21 19:36:00,
2013-02-21 14:40:00,37.5,16.9,30.25,SE,135,0.0,2.6,43,0.00,,,0.00,WUHU216HW,2013-02-21 19:40:00,
2013-02-21 14:45:00,38.3,17.4,30.25,NNW,338,0.0,4.0,42,0.00,,,0.00,WUHU216HW,2013-02-21 19:45:00,
2013-02-21 14:50:00,39.5,17.7,30.24,NNW,338,0.0,4.0,41,0.00,,,0.00,WUHU216HW,2013-02-21 19:50:00,
2013-02-21 14:55:00,40.1,17.6,30.24,ENE,68,0.0,3.1,40,0.00,,,0.00,WUHU216HW,2013-02-21 19:55:00,
2013-02-21 15:00:00,41.1,18.6,30.23,SSE,158,0.0,0.0,40,0.00,,,0.00,WUHU216HW,2013-02-21 20:00:00,
2013-02-21 15:06:00,41.1,17.9,30.23,North,0,0.0,0.0,39,0.00,,,0.00,WUHU216HW,2013-02-21 20:06:00,
2013-02-21 15:11:00,42.2,18.9,30.23,ENE,68,0.0,0.0,39,0.00,,,0.00,WUHU216HW,2013-02-21 20:11:00,
2013-02-21 15:16:00,43.3,19.2,30.24,SE,135,0.0,0.0,38,0.00,,,0.00,WUHU216HW,2013-02-21 20:16:00,
2013-02-21 15:21:00,43.7,18.2,30.25,NNE,23,0.0,0.0,36,0.00,,,0.00,WUHU216HW,2013-02-21 20:21:00,
2013-02-21 15:26:00,43.7,16.9,30.25,NNW,338,0.0,0.0,34,0.00,,,0.00,WUHU216HW,2013-02-21 20:26:00,
2013-02-21 15:31:00,43.7,16.9,30.25,NNW,338,0.0,0.0,34,0.00,,,0.00,WUHU216HW,2013-02-21 20:31:00,
2013-02-21 15:36:00,43.7,16.2,30.25,ESE,113,0.8,1.7,33,0.00,,,0.00,WUHU216HW,2013-02-21 20:36:00,
2013-02-21 15:40:00,44.4,16.9,30.25,ESE,113,0.0,1.7,33,0.00,,,0.00,WUHU216HW,2013-02-21 20:40:00,
2013-02-21 15:45:00,44.9,16.7,30.25,NNE,23,0.0,0.0,32,0.00,,,0.00,WUHU216HW,2013-02-21 20:45:00,
2013-02-21 15:51:00,45.8,18.2,30.25,NE,45,0.0,0.8,33,0.00,,,0.00,WUHU216HW,2013-02-21 20:51:00,
2013-02-21 15:55:00,46.4,18.0,30.26,NNW,338,0.0,0.8,32,0.00,,,0.00,WUHU216HW,2013-02-21 20:55:00,
2013-02-21 16:00:00,45.8,14.5,30.25,ESE,113,0.0,0.0,28,0.00,,,0.00,WUHU216HW,2013-02-21 21:00:00,
2013-02-21 16:05:00,45.3,5.4,30.25,East,90,0.0,0.0,19,0.00,,,0.00,WUHU216HW,2013-02-21 21:05:00,
2013-02-21 16:10:00,43.7,4.1,30.25,ESE,113,0.0,0.0,19,0.00,,,0.00,WUHU216HW,2013-02-21 21:10:00,
2013-02-21 16:16:00,42.4,3.0,30.25,SE,135,0.0,0.0,19,0.00,,,0.00,WUHU216HW,2013-02-21 21:16:00,
2013-02-21 16:21:00,41.5,2.2,30.26,NNE,23,0.0,0.8,19,0.00,,,0.00,WUHU216HW,2013-02-21 21:21:00,
2013-02-21 16:26:00,40.8,1.7,30.26,NE,45,0.0,0.8,19,0.00,,,0.00,WUHU216HW,2013-02-21 21:26:00,
2013-02-21 16:31:00,39.7,0.7,30.26,SE,135,0.0,0.0,19,0.00,,,0.00,WUHU216HW,2013-02-21 21:31:00,
2013-02-21 16:36:00,38.6,-0.2,30.27,SSE,158,0.0,0.0,19,0.00,,,0.00,WUHU216HW,2013-02-21 21:36:00,
2013-02-21 16:40:00,37.5,-1.1,30.27,ESE,113,0.0,0.0,19,0.00,,,0.00,WUHU216HW,2013-02-21 21:40:00,
2013-02-21 16:46:00,37.0,-1.5,30.27,SE,135,0.0,0.0,19,0.00,,,0.00,WUHU216HW,2013-02-21 21:46:00,
2013-02-21 16:50:00,36.3,-0.9,30.28,East,90,0.0,0.0,19,0.00,,,0.00,WUHU216HW,2013-02-21 21:50:00,
2013-02-21 16:55:00,35.7,0.3,30.28,ESE,113,0.0,0.0,22,0.00,,,0.00,WUHU216HW,2013-02-21 21:55:00,
2013-02-21 17:00:00,35.0,2.3,30.27,ENE,68,0.0,0.0,25,0.00,,,0.00,WUHU216HW,2013-02-21 22:00:00,
2013-02-21 17:05:00,34.5,2.7,30.27,East,90,0.0,0.0,26,0.00,,,0.00,WUHU216HW,2013-02-21 22:05:00,
2013-02-21 17:10:00,33.9,5.8,30.26,North,0,0.0,0.0,30,0.00,,,0.00,WUHU216HW,2013-02-21 22:10:00,
2013-02-21 17:15:00,33.4,6.0,30.26,ENE,68,0.0,0.0,31,0.00,,,0.00,WUHU216HW,2013-02-21 22:15:00,
2013-02-21 17:20:00,32.9,6.1,30.27,SE,135,0.0,0.0,32,0.00,,,0.00,WUHU216HW,2013-02-21 22:20:00,
2013-02-21 17:25:00,32.7,6.6,30.26,NE,45,0.0,0.0,33,0.00,,,0.00,WUHU216HW,2013-02-21 22:25:00,
2013-02-21 17:30:00,32.3,6.9,30.26,East,90,0.0,0.0,34,0.00,,,0.00,WUHU216HW,2013-02-21 22:30:00,
2013-02-21 17:35:00,32.1,7.4,30.27,NNE,23,0.0,0.0,35,0.00,,,0.00,WUHU216HW,2013-02-21 22:35:00,
2013-02-21 17:40:00,31.4,7.3,30.26,ENE,68,0.0,0.0,36,0.00,,,0.00,WUHU216HW,2013-02-21 22:40:00,
2013-02-21 17:45:00,31.1,7.0,30.27,NNE,23,0.0,0.0,36,0.00,,,0.00,WUHU216HW,2013-02-21 22:45:00,
2013-02-21 17:50:00,30.3,7.0,30.27,NE,45,0.0,0.0,37,0.00,,,0.00,WUHU216HW,2013-02-21 22:50:00,
2013-02-21 17:55:00,29.8,6.7,30.27,NE,45,0.0,0.0,37,0.00,,,0.00,WUHU216HW,2013-02-21 22:55:00,
2013-02-21 18:00:00,29.6,7.0,30.27,NE,45,0.0,0.0,38,0.00,,,0.00,WUHU216HW,2013-02-21 23:00:00,
2013-02-21 18:05:00,29.3,7.3,30.27,WNW,293,0.0,0.0,39,0.00,,,0.00,WUHU216HW,2013-02-21 23:05:00,
2013-02-21 18:10:00,28.7,6.8,30.28,NNE,23,0.0,0.0,40,0.00,,,0.00,WUHU216HW,2013-02-21 23:10:00,
2013-02-21 18:15:00,28.5,7.3,30.28,NE,45,0.0,0.0,40,0.00,,,0.00,WUHU216HW,2013-02-21 23:15:00,
2013-02-21 18:20:00,28.4,6.9,30.28,ENE,68,0.0,1.1,40,0.00,,,0.00,WUHU216HW,2013-02-21 23:20:00,
2013-02-21 18:25:00,27.8,7.3,30.28,ENE,68,0.0,1.1,41,0.00,,,0.00,WUHU216HW,2013-02-21 23:25:00,
2013-02-21 18:30:00,27.8,7.1,30.28,NE,45,0.0,0.0,41,0.00,,,0.00,WUHU216HW,2013-02-21 23:30:00,
2013-02-21 18:35:00,27.6,6.9,30.28,East,90,0.0,0.0,41,0.00,,,0.00,WUHU216HW,2013-02-21 23:35:00,
2013-02-21 18:40:00,27.5,7.3,30.28,ENE,68,0.0,0.0,42,0.00,,,0.00,WUHU216HW,2013-02-21 23:40:00,
2013-02-21 18:45:00,27.5,7.3,30.27,NE,45,0.0,0.0,42,0.00,,,0.00,WUHU216HW,2013-02-21 23:45:00,
2013-02-21 18:50:00,27.3,7.1,30.27,SE,135,0.0,0.0,42,0.00,,,0.00,WUHU216HW,2013-02-21 23:50:00,
2013-02-21 18:55:00,27.1,7.4,30.27,NE,45,0.0,0.0,43,0.00,,,0.00,WUHU216HW,2013-02-21 23:55:00,
2013-02-21 19:00:00,26.9,7.3,30.26,NE,45,0.0,0.0,43,0.00,,,0.00,WUHU216HW,2013-02-22 00:00:00,
2013-02-21 19:05:00,26.9,7.3,30.26,NE,45,0.0,0.0,43,0.00,,,0.00,WUHU216HW,2013-02-22 00:05:00,
2013-02-21 19:10:00,26.7,7.6,30.26,NNE,23,0.0,0.0,44,0.00,,,0.00,WUHU216HW,2013-02-22 00:10:00,
2013-02-21 19:15:00,26.4,7.3,30.26,NE,45,0.0,0.0,44,0.00,,,0.00,WUHU216HW,2013-02-22 00:15:00,
2013-02-21 19:20:00,26.6,7.3,30.26,NE,45,0.0,0.0,45,0.00,,,0.00,WUHU216HW,2013-02-22 00:20:00,
2013-02-21 19:25:00,26.2,7.6,30.26,ENE,68,0.0,0.0,45,0.00,,,0.00,WUHU216HW,2013-02-22 00:25:00,
2013-02-21 19:30:00,26.2,7.6,30.27,NE,45,0.0,1.3,45,0.00,,,0.00,WUHU216HW,2013-02-22 00:30:00,
2013-02-21 19:35:00,26.2,7.6,30.27,East,90,0.0,1.3,45,0.00,,,0.00,WUHU216HW,2013-02-22 00:35:00,
2013-02-21 19:40:00,26.0,7.4,30.27,NE,45,0.0,0.0,45,0.00,,,0.00,WUHU216HW,2013-02-22 00:40:00,
2013-02-21 19:45:00,26.0,7.4,30.27,NE,45,0.0,0.0,45,0.00,,,0.00,WUHU216HW,2013-02-22 00:45:00,
2013-02-21 19:50:00,25.8,7.8,30.26,ENE,68,0.0,0.0,46,0.00,,,0.00,WUHU216HW,2013-02-22 00:50:00,
2013-02-21 19:55:00,25.8,7.9,30.26,NNE,23,0.0,0.0,46,0.00,,,0.00,WUHU216HW,2013-02-22 00:55:00,
2013-02-21 20:00:00,25.8,7.8,30.26,ENE,68,0.0,0.0,46,0.00,,,0.00,WUHU216HW,2013-02-22 01:00:00,
2013-02-21 20:05:00,25.7,7.6,30.26,NE,45,0.0,0.0,46,0.00,,,0.00,WUHU216HW,2013-02-22 01:05:00,
2013-02-21 20:10:00,25.5,7.4,30.25,NNE,23,0.0,0.0,46,0.00,,,0.00,WUHU216HW,2013-02-22 01:10:00,
2013-02-21 20:15:00,25.3,7.3,30.25,NE,45,0.0,0.0,46,0.00,,,0.00,WUHU216HW,2013-02-22 01:15:00,
2013-02-21 20:20:00,25.1,7.3,30.25,ENE,68,0.0,0.0,46,0.00,,,0.00,WUHU216HW,2013-02-22 01:20:00,
2013-02-21 20:25:00,25.1,7.8,30.24,NE,45,0.0,0.0,47,0.00,,,0.00,WUHU216HW,2013-02-22 01:25:00,
2013-02-21 20:30:00,24.9,7.4,30.24,NNE,23,0.0,0.0,47,0.00,,,0.00,WUHU216HW,2013-02-22 01:30:00,
2013-02-21 20:35:00,24.9,7.4,30.24,ENE,68,0.0,0.0,47,0.00,,,0.00,WUHU216HW,2013-02-22 01:35:00,
2013-02-21 20:40:00,24.9,7.4,30.24,ENE,68,0.0,0.0,47,0.00,,,0.00,WUHU216HW,2013-02-22 01:40:00,
2013-02-21 20:45:00,24.8,7.3,30.23,NE,45,0.0,0.0,47,0.00,,,0.00,WUHU216HW,2013-02-22 01:45:00,
2013-02-21 20:50:00,24.6,7.6,30.23,ENE,68,0.0,0.0,48,0.00,,,0.00,WUHU216HW,2013-02-22 01:50:00,
2013-02-21 20:55:00,24.6,7.6,30.23,NW,315,0.0,0.0,48,0.00,,,0.00,WUHU216HW,2013-02-22 01:55:00,
2013-02-21 21:00:00,24.6,7.6,30.23,NE,45,0.0,0.0,48,0.00,,,0.00,WUHU216HW,2013-02-22 02:00:00,
2013-02-21 21:05:00,24.6,7.6,30.23,ENE,68,0.0,0.0,48,0.00,,,0.00,WUHU216HW,2013-02-22 02:05:00,
2013-02-21 21:10:00,24.6,8.1,30.23,NE,45,0.0,0.0,49,0.00,,,0.00,WUHU216HW,2013-02-22 02:10:00,
2013-02-21 21:15:00,24.8,8.2,30.23,ENE,68,0.0,0.0,49,0.00,,,0.00,WUHU216HW,2013-02-22 02:15:00,
2013-02-21 21:20:00,24.6,8.1,30.23,ENE,68,0.0,2.0,49,0.00,,,0.00,WUHU216HW,2013-02-22 02:20:00,
2013-02-21 21:25:00,24.8,8.2,30.23,NE,45,0.0,2.0,49,0.00,,,0.00,WUHU216HW,2013-02-22 02:25:00,
2013-02-21 21:30:00,24.8,8.2,30.23,NE,45,0.0,0.0,49,0.00,,,0.00,WUHU216HW,2013-02-22 02:30:00,
2013-02-21 21:35:00,24.8,8.2,30.23,ESE,113,0.0,0.0,49,0.00,,,0.00,WUHU216HW,2013-02-22 02:35:00,
2013-02-21 21:40:00,24.8,8.2,30.23,NE,45,0.0,0.0,49,0.00,,,0.00,WUHU216HW,2013-02-22 02:40:00,
2013-02-21 21:45:00,24.6,8.1,30.23,ENE,68,0.0,0.0,49,0.00,,,0.00,WUHU216HW,2013-02-22 02:45:00,
2013-02-21 21:50:00,24.8,8.2,30.22,ENE,68,0.0,0.0,49,0.00,,,0.00,WUHU216HW,2013-02-22 02:50:00,
2013-02-21 21:55:00,24.8,8.2,30.22,NE,45,0.0,0.0,49,0.00,,,0.00,WUHU216HW,2013-02-22 02:55:00,
2013-02-21 22:00:00,24.6,8.6,30.21,ENE,68,0.0,0.0,50,0.00,,,0.00,WUHU216HW,2013-02-22 03:00:00,
2013-02-21 22:05:00,24.8,8.7,30.22,SE,135,0.0,0.0,50,0.00,,,0.00,WUHU216HW,2013-02-22 03:05:00,
2013-02-21 22:10:00,24.8,8.7,30.22,NE,45,0.0,2.4,50,0.00,,,0.00,WUHU216HW,2013-02-22 03:10:00,
2013-02-21 22:15:00,24.6,8.6,30.22,ENE,68,0.0,2.4,50,0.00,,,0.00,WUHU216HW,2013-02-22 03:15:00,
2013-02-21 22:20:00,24.6,8.6,30.23,East,90,0.0,0.0,50,0.00,,,0.00,WUHU216HW,2013-02-22 03:20:00,
2013-02-21 22:25:00,24.4,8.4,30.22,NE,45,0.0,0.0,50,0.00,,,0.00,WUHU216HW,2013-02-22 03:25:00,
2013-02-21 22:30:00,24.4,8.4,30.22,NE,45,0.0,0.0,50,0.00,,,0.00,WUHU216HW,2013-02-22 03:30:00,
2013-02-21 22:35:00,24.4,8.4,30.22,ENE,68,0.0,0.0,50,0.00,,,0.00,WUHU216HW,2013-02-22 03:35:00,
2013-02-21 22:40:00,24.4,8.4,30.23,East,90,0.0,0.0,50,0.00,,,0.00,WUHU216HW,2013-02-22 03:40:00,
2013-02-21 22:45:00,24.6,8.6,30.23,ESE,113,0.0,0.0,50,0.00,,,0.00,WUHU216HW,2013-02-22 03:45:00,
2013-02-21 22:50:00,24.4,8.6,30.23,East,90,0.0,0.0,50,0.00,,,0.00,WUHU216HW,2013-02-22 03:50:00,
2013-02-21 22:55:00,24.6,9.0,30.23,East,90,0.0,0.0,51,0.00,,,0.00,WUHU216HW,2013-02-22 03:55:00,
2013-02-21 23:00:00,24.6,9.0,30.23,East,90,0.0,0.0,51,0.00,,,0.00,WUHU216HW,2013-02-22 04:00:00,
2013-02-21 23:05:00,24.6,9.0,30.24,ENE,68,0.0,0.0,51,0.00,,,0.00,WUHU216HW,2013-02-22 04:05:00,
2013-02-21 23:10:00,24.6,9.0,30.24,ENE,68,0.0,0.0,51,0.00,,,0.00,WUHU216HW,2013-02-22 04:10:00,
2013-02-21 23:15:00,24.9,9.3,30.23,ENE,68,0.0,0.0,51,0.00,,,0.00,WUHU216HW,2013-02-22 04:15:00,
2013-02-21 23:20:00,24.9,9.3,30.23,ENE,68,0.0,0.0,51,0.00,,,0.00,WUHU216HW,2013-02-22 04:20:00,
2013-02-21 23:25:00,24.9,9.3,30.23,ENE,68,0.0,0.0,51,0.00,,,0.00,WUHU216HW,2013-02-22 04:25:00,
2013-02-21 23:30:00,24.9,9.3,30.23,SE,135,0.0,0.0,51,0.00,,,0.00,WUHU216HW,2013-02-22 04:30:00,
2013-02-21 23:35:00,24.9,9.3,30.23,ENE,68,0.0,0.0,51,0.00,,,0.00,WUHU216HW,2013-02-22 04:35:00,
2013-02-21 23:40:00,24.9,9.3,30.23,ENE,68,0.0,0.0,51,0.00,,,0.00,WUHU216HW,2013-02-22 04:40:00,
2013-02-21 23:45:00,24.9,9.3,30.22,ESE,113,0.0,0.0,51,0.00,,,0.00,WUHU216HW,2013-02-22 04:45:00,
2013-02-21 23:50:00,24.9,9.3,30.23,ESE,113,0.0,0.0,51,0.00,,,0.00,WUHU216HW,2013-02-22 04:50:00,
2013-02-21 23:55:00,24.9,9.3,30.23,ESE,113,0.0,0.0,51,0.00,,,0.00,WUHU216HW,2013-02-22 04:55:00,